TimeAKST,TemperatureF,Dew PointF,Humidity,Sea Level PressureIn,VisibilityMPH,Wind Direction,Wind SpeedMPH,Gust SpeedMPH,PrecipitationIn,Events,Conditions,WindDirDegrees,DateUTC
12:53 AM,37.0,30.9,79,30.23,10.0,Calm,Calm,-,N/A,,Overcast,0,2013-02-13 09:53:00
1:53 AM,36.0,33.1,89,30.25,10.0,Calm,Calm,-,N/A,,Overcast,0,2013-02-13 10:53:00
3:53 AM,36.0,33.1,89,30.27,10.0,Calm,Calm,-,0.00,,Overcast,0,2013-02-13 12:53:00
4:53 AM,36.0,33.1,89,30.28,10.0,Calm,Calm,-,N/A,,Overcast,0,2013-02-13 13:53:00
5:53 AM,34.0,33.1,96,30.27,10.0,Calm,Calm,-,N/A,,Partly Cloudy,0,2013-02-13 14:53:00
6:53 AM,32.0,30.9,96,30.28,10.0,Calm,Calm,-,N/A,,Scattered Clouds,0,2013-02-13 15:53:00
7:53 AM,33.1,32.0,96,30.30,10.0,Calm,Calm,-,N/A,,Mostly Cloudy,0,2013-02-13 16:53:00
8:53 AM,35.1,33.1,92,30.31,10.0,Calm,Calm,-,N/A,,Mostly Cloudy,0,2013-02-13 17:53:00
9:53 AM,37.9,35.1,89,30.32,10.0,Calm,Calm,-,N/A,,Overcast,0,2013-02-13 18:53:00
10:53 AM,39.9,35.1,83,30.33,10.0,ESE,6.9,-,0.00,Rain,Light Rain,120,2013-02-13 19:53:00
11:53 AM,41.0,35.1,79,30.32,10.0,SE,9.2,-,0.00,,Mostly Cloudy,130,2013-02-13 20:53:00
12:53 PM,39.0,36.0,89,30.32,6.0,ESE,10.4,-,0.01,Rain,Light Rain,120,2013-02-13 21:53:00
1:01 PM,39.2,37.4,93,30.31,10.0,ESE,8.1,-,0.00,Rain,Light Rain,120,2013-02-13 22:01:00
1:53 PM,39.9,37.0,89,30.32,10.0,ESE,8.1,-,0.00,Rain,Light Rain,110,2013-02-13 22:53:00
2:53 PM,39.9,36.0,86,30.30,10.0,ESE,8.1,-,0.00,,Mostly Cloudy,110,2013-02-13 23:53:00
3:11 PM,39.2,35.6,87,30.29,10.0,ESE,10.4,-,N/A,,Mostly Cloudy,110,2013-02-14 00:11:00
3:19 PM,39.2,35.6,87,30.28,10.0,ESE,10.4,-,N/A,,Mostly Cloudy,110,2013-02-14 00:19:00
3:53 PM,39.9,35.1,83,30.29,10.0,ESE,6.9,-,N/A,,Mostly Cloudy,120,2013-02-14 00:53:00
4:53 PM,39.9,35.1,83,30.28,10.0,ESE,10.4,-,N/A,,Overcast,120,2013-02-14 01:53:00
5:53 PM,41.0,32.0,70,30.28,10.0,ESE,8.1,-,N/A,,Overcast,110,2013-02-14 02:53:00
6:53 PM,41.0,30.9,67,30.27,10.0,ESE,9.2,16.1,N/A,,Overcast,110,2013-02-14 03:53:00
7:53 PM,39.9,32.0,73,30.26,10.0,ESE,8.1,19.6,0.00,,Overcast,110,2013-02-14 04:53:00
8:24 PM,39.2,33.8,81,30.25,10.0,SE,12.7,20.7,N/A,,Overcast,130,2013-02-14 05:24:00
8:53 PM,39.9,32.0,73,30.25,10.0,SE,17.3,24.2,N/A,,Overcast,130,2013-02-14 05:53:00
9:43 PM,39.2,32.0,75,30.23,10.0,ESE,10.4,19.6,N/A,,Overcast,120,2013-02-14 06:43:00
9:50 PM,39.2,32.0,75,30.23,10.0,ESE,10.4,23.0,N/A,,Overcast,110,2013-02-14 06:50:00
9:53 PM,39.9,32.0,73,30.24,10.0,ESE,9.2,23.0,N/A,,Overcast,110,2013-02-14 06:53:00
10:53 PM,39.9,33.1,77,30.24,10.0,ESE,12.7,-,0.00,,Overcast,120,2013-02-14 07:53:00
11:53 PM,39.9,34.0,79,30.23,10.0,SE,13.8,23.0,N/A,,Overcast,130,2013-02-14 08:53:00